Regional Weather Roundup
Issued by NWS

Home | Current Version | Previous Version | Text Only | Print | Product List | Glossary On
Versions: 1 2 3 4 5 6 7 8 9 10 11 12 13 14 15 16 17 18 19 20 21 22 23 24 25 26 27 28 29 30 31 32 33 34 35 36 37 38 39 40 41 42 43 44 45 46 47 48 49 50
000
ASUS43 KTOP 270808
RWRKS

WEATHER ROUNDUP FOR KANSAS
NATIONAL WEATHER SERVICE GOODLAND KS
300 AM CDT MON APR 27 2015

NOTE:  "FAIR" INDICATES FEW OR NO CLOUDS BELOW 12,000 FEET WITH NO
SIGNIFICANT WEATHER AND/OR OBSTRUCTIONS TO VISIBILITY.

KSZ001>006-013>018-027>032-041>047-270900-
NORTHWEST KANSAS

CITY           SKY/WX    TMP DP  RH WIND       PRES   REMARKS
GOODLAND       CLOUDY    44  43  96 NE9       30.08S
HAYS           CLOUDY    46  36  66 NE12      30.04R
HILL CITY      PTCLDY    45  42  89 N14       30.07S
RUSSELL        CLOUDY    44  41  89 NE9       30.03S
$$

KSZ061>065-074>080-084>089-270900-
SOUTHWEST KANSAS

CITY           SKY/WX    TMP DP  RH WIND       PRES   REMARKS
DODGE CITY     CLOUDY    46  43  89 NE16      29.99F
ELKHART          N/A     43  39  86 NE17        N/A
GARDEN CITY    CLOUDY    44  43  96 NE15      29.99R
GREAT BEND     CLOUDY    48  39  71 NE8       30.03R
LIBERAL        CLOUDY    46  43  87 NE14G22   29.97R
$$

KSZ066>073-081>083-090>101-270900-
SOUTHEAST KANSAS

CITY           SKY/WX    TMP DP  RH WIND       PRES   REMARKS
CHANUTE        CLOUDY    52  38  58 NE13G23   29.96S
COFFEYVILLE    CLOUDY    53  44  71 NE5       29.96R
HUTCHINSON     CLOUDY    50  41  71 NE7       30.02R
MEDICINE LODGE   N/A     50  48  93 NE13      29.94F
NEWTON         CLOUDY    46  37  71 E3        30.03R
PARSONS        CLOUDY    53  40  61 E6        29.97R
WICHITA INTL   CLOUDY    53  39  59 E9        29.99F
WICHITA JABRA  CLOUDY    50  39  66 NE7       29.99S
WICHITA MCCONL CLOUDY    52  39  61 E6        29.99S
WINFIELD       CLOUDY    52  47  83 NE8       29.97F
$$

KSZ007>012-019>026-033>040-048>060-102>105-270900-
NORTHEAST KANSAS

CITY           SKY/WX    TMP DP  RH WIND       PRES   REMARKS
CONCORDIA      PTCLDY    44  35  70 NE6       30.07S
EMPORIA        CLOUDY    49  37  63 NE12      30.00S
LAWRENCE       CLOUDY    46  37  71 NE7       30.05R
MANHATTAN      CLOUDY    46  37  71 NE6       30.05R
MARYSVILLE     PTCLDY    39  34  81 E5        30.07S
OLATHE IND     CLOUDY    47  37  68 NE8       30.04S
OLATHE EXE     CLOUDY    47  36  65 NE8       30.03S
SALINA         CLOUDY    48  40  73 N7        30.04R
TOPEKA BILLARD MOCLDY    46  38  73 NE5       30.05R
TOPEKA FORBES  CLOUDY    47  38  71 NE6       30.03S
$$



USA.gov is the U.S. government's official web portal to all federal, state and local government web resources and services.